Time,TemperatureF,DewpointF,PressureIn,WindDirection,WindDirectionDegrees,WindSpeedMPH,WindSpeedGustMPH,Humidity,HourlyPrecipIn,Conditions,Clouds,dailyrainin,SoftwareType,DateUTC
2013-02-28 00:01:00,46.0,44.0,30.25,NE,39,0.0,2.0,94,0.01,,,0.04,,2013-02-28 08:01:00,
2013-02-28 00:11:00,46.0,44.0,30.25,NE,39,0.0,2.0,94,0.01,,,0.04,,2013-02-28 08:11:00,
2013-02-28 00:21:00,46.0,44.0,30.25,NNE,28,6.0,8.0,94,0.01,,,0.04,,2013-02-28 08:21:00,
2013-02-28 00:31:00,46.0,44.0,30.25,ENE,58,3.0,7.0,94,0.01,,,0.04,,2013-02-28 08:31:00,
2013-02-28 00:41:00,46.0,44.0,30.25,ENE,58,3.0,7.0,94,0.01,,,0.04,,2013-02-28 08:41:00,
2013-02-28 00:52:00,46.0,44.0,30.24,ENE,57,0.0,3.0,94,0.01,,,0.05,,2013-02-28 08:52:00,
2013-02-28 01:02:00,46.0,44.0,30.24,ENE,77,1.0,4.0,94,0.01,,,0.05,,2013-02-28 09:02:00,
2013-02-28 01:11:00,46.0,44.0,30.24,ENE,77,1.0,4.0,94,0.01,,,0.05,,2013-02-28 09:11:00,
2013-02-28 01:21:00,46.0,44.0,30.23,East,79,1.0,4.0,94,0.01,,,0.05,,2013-02-28 09:21:00,
2013-02-28 01:31:00,46.0,44.0,30.23,East,79,0.0,1.0,94,0.01,,,0.05,,2013-02-28 09:31:00,
2013-02-28 01:41:00,46.0,44.0,30.23,East,79,0.0,1.0,94,0.01,,,0.05,,2013-02-28 09:41:00,
2013-02-28 01:52:00,46.0,44.0,30.23,East,79,0.0,2.0,94,0.00,,,0.05,,2013-02-28 09:52:00,
2013-02-28 02:01:00,46.0,45.0,30.23,East,79,0.0,2.0,95,0.00,,,0.05,,2013-02-28 10:01:00,
2013-02-28 02:11:00,45.0,44.0,30.23,East,79,0.0,4.0,95,0.01,,,0.06,,2013-02-28 10:11:00,
2013-02-28 02:21:00,45.0,44.0,30.23,East,79,0.0,4.0,95,0.01,,,0.06,,2013-02-28 10:21:00,
2013-02-28 02:31:00,45.0,44.0,30.23,East,79,0.0,3.0,95,0.01,,,0.06,,2013-02-28 10:31:00,
2013-02-28 02:41:00,45.0,44.0,30.23,East,79,0.0,3.0,95,0.01,,,0.06,,2013-02-28 10:41:00,
2013-02-28 02:52:00,45.0,44.0,30.22,East,79,1.0,3.0,95,0.01,,,0.06,,2013-02-28 10:52:00,
2013-02-28 03:01:00,45.0,44.0,30.22,East,79,0.0,4.0,95,0.01,,,0.06,,2013-02-28 11:01:00,
2013-02-28 03:11:00,45.0,44.0,30.22,East,79,0.0,4.0,95,0.01,,,0.06,,2013-02-28 11:11:00,
2013-02-28 03:21:00,45.0,44.0,30.22,East,79,1.0,3.0,96,0.01,,,0.07,,2013-02-28 11:21:00,
2013-02-28 03:31:00,45.0,44.0,30.22,East,79,0.0,3.0,96,0.01,,,0.07,,2013-02-28 11:31:00,
2013-02-28 03:41:00,45.0,44.0,30.22,East,79,0.0,3.0,96,0.01,,,0.07,,2013-02-28 11:41:00,
2013-02-28 03:52:00,45.0,44.0,30.22,East,79,1.0,3.0,96,0.01,,,0.07,,2013-02-28 11:52:00,
2013-02-28 04:01:00,45.0,44.0,30.22,East,79,1.0,4.0,96,0.01,,,0.07,,2013-02-28 12:01:00,
2013-02-28 04:11:00,45.0,44.0,30.22,East,79,1.0,4.0,96,0.01,,,0.07,,2013-02-28 12:11:00,
2013-02-28 04:21:00,46.0,45.0,30.22,East,80,0.0,3.0,96,0.00,,,0.07,,2013-02-28 12:21:00,
2013-02-28 04:31:00,46.0,45.0,30.22,East,79,1.0,3.0,96,0.00,,,0.07,,2013-02-28 12:31:00,
2013-02-28 04:42:00,46.0,45.0,30.22,East,79,1.0,3.0,96,0.00,,,0.07,,2013-02-28 12:42:00,
2013-02-28 04:52:00,46.0,45.0,30.22,East,80,2.0,4.0,96,0.00,,,0.07,,2013-02-28 12:52:00,
2013-02-28 05:01:00,47.0,46.0,30.22,East,79,1.0,3.0,96,0.00,,,0.07,,2013-02-28 13:01:00,
2013-02-28 05:11:00,48.0,47.0,30.22,East,80,0.0,4.0,96,0.00,,,0.07,,2013-02-28 13:11:00,
2013-02-28 05:21:00,48.0,47.0,30.22,East,80,0.0,4.0,96,0.00,,,0.07,,2013-02-28 13:21:00,
2013-02-28 05:31:00,47.0,46.0,30.22,East,80,0.0,4.0,95,0.00,,,0.07,,2013-02-28 13:31:00,
2013-02-28 05:41:00,47.0,46.0,30.22,East,80,0.0,4.0,95,0.00,,,0.07,,2013-02-28 13:41:00,
2013-02-28 05:52:00,48.0,46.0,30.23,South,183,2.0,7.0,94,0.00,,,0.07,,2013-02-28 13:52:00,
2013-02-28 06:01:00,49.0,47.0,30.23,SSW,203,2.0,8.0,93,0.00,,,0.07,,2013-02-28 14:01:00,
2013-02-28 06:11:00,50.0,48.0,30.23,South,169,8.0,14.0,93,0.00,,,0.07,,2013-02-28 14:11:00,
2013-02-28 06:21:00,50.0,48.0,30.23,South,169,8.0,14.0,93,0.00,,,0.07,,2013-02-28 14:21:00,
2013-02-28 06:31:00,51.0,48.0,30.23,South,184,6.0,14.0,91,0.00,,,0.07,,2013-02-28 14:31:00,
2013-02-28 06:41:00,51.0,48.0,30.23,South,186,4.0,11.0,90,0.00,,,0.07,,2013-02-28 14:41:00,
2013-02-28 06:52:00,51.0,48.0,30.23,South,186,4.0,11.0,90,0.00,,,0.07,,2013-02-28 14:52:00,
2013-02-28 07:01:00,52.0,49.0,30.24,SW,219,4.0,10.0,90,0.00,,,0.07,,2013-02-28 15:01:00,
2013-02-28 07:11:00,52.0,49.0,30.24,SW,219,4.0,10.0,90,0.00,,,0.07,,2013-02-28 15:11:00,
2013-02-28 07:21:00,52.0,49.0,30.24,SW,219,5.0,13.0,89,0.00,,,0.07,,2013-02-28 15:21:00,
2013-02-28 07:31:00,52.0,49.0,30.24,SSW,194,5.0,15.0,89,0.00,,,0.07,,2013-02-28 15:31:00,
2013-02-28 07:41:00,52.0,49.0,30.24,SSW,194,5.0,15.0,89,0.00,,,0.07,,2013-02-28 15:41:00,
2013-02-28 07:52:00,52.0,49.0,30.24,SSW,213,3.0,9.0,88,0.00,,,0.07,,2013-02-28 15:52:00,
2013-02-28 08:01:00,52.0,49.0,30.25,SW,225,7.0,11.0,88,0.00,,,0.07,,2013-02-28 16:01:00,
2013-02-28 08:11:00,52.0,49.0,30.25,SW,225,7.0,11.0,88,0.00,,,0.07,,2013-02-28 16:11:00,
2013-02-28 08:21:00,52.0,49.0,30.25,South,187,6.0,13.0,88,0.00,,,0.07,,2013-02-28 16:21:00,
2013-02-28 08:31:00,52.0,49.0,30.25,SSW,205,3.0,11.0,88,0.00,,,0.07,,2013-02-28 16:31:00,
2013-02-28 08:41:00,52.0,49.0,30.25,SSW,205,3.0,11.0,88,0.00,,,0.07,,2013-02-28 16:41:00,
2013-02-28 08:52:00,52.0,49.0,30.26,SSW,211,6.0,12.0,89,0.01,,,0.08,,2013-02-28 16:52:00,
2013-02-28 09:01:00,52.0,49.0,30.27,SSW,209,5.0,10.0,89,0.02,,,0.09,,2013-02-28 17:01:00,
2013-02-28 09:11:00,52.0,49.0,30.27,SW,214,6.0,11.0,89,0.02,,,0.09,,2013-02-28 17:11:00,
2013-02-28 09:21:00,52.0,49.0,30.27,SW,214,6.0,11.0,89,0.02,,,0.09,,2013-02-28 17:21:00,
2013-02-28 09:31:00,52.0,49.0,30.28,SSW,209,3.0,10.0,90,0.02,,,0.09,,2013-02-28 17:31:00,
2013-02-28 09:41:00,52.0,49.0,30.28,SSW,209,3.0,10.0,90,0.02,,,0.09,,2013-02-28 17:41:00,
2013-02-28 09:52:00,52.0,49.0,30.29,SSW,192,6.0,11.0,90,0.01,,,0.09,,2013-02-28 17:52:00,
2013-02-28 10:01:00,52.0,49.0,30.29,SSW,206,5.0,15.0,91,0.01,,,0.10,,2013-02-28 18:01:00,
2013-02-28 10:11:00,52.0,50.0,30.29,South,171,2.0,10.0,92,0.02,,,0.11,,2013-02-28 18:11:00,
2013-02-28 10:21:00,52.0,50.0,30.29,South,171,2.0,10.0,92,0.02,,,0.11,,2013-02-28 18:21:00,
2013-02-28 10:31:00,53.0,50.0,30.30,South,182,5.0,9.0,91,0.02,,,0.11,,2013-02-28 18:31:00,
2013-02-28 10:41:00,53.0,50.0,30.30,South,182,5.0,9.0,91,0.02,,,0.11,,2013-02-28 18:41:00,
2013-02-28 10:52:00,53.0,50.0,30.31,South,187,3.0,12.0,91,0.02,,,0.11,,2013-02-28 18:52:00,
2013-02-28 11:01:00,53.0,50.0,30.31,SSW,200,4.0,12.0,91,0.01,,,0.11,,2013-02-28 19:01:00,
2013-02-28 11:11:00,53.0,50.0,30.31,SSW,200,4.0,12.0,91,0.01,,,0.11,,2013-02-28 19:11:00,
2013-02-28 11:21:00,53.0,50.0,30.30,South,186,4.0,9.0,91,0.01,,,0.12,,2013-02-28 19:21:00,
2013-02-28 11:31:00,53.0,50.0,30.31,South,182,3.0,9.0,90,0.01,,,0.12,,2013-02-28 19:31:00,
2013-02-28 11:41:00,53.0,50.0,30.31,South,182,3.0,9.0,90,0.01,,,0.12,,2013-02-28 19:41:00,
2013-02-28 11:52:00,54.0,51.0,30.32,South,185,5.0,8.0,89,0.01,,,0.12,,2013-02-28 19:52:00,
2013-02-28 12:01:00,54.0,51.0,30.32,SSW,210,4.0,8.0,89,0.01,,,0.12,,2013-02-28 20:01:00,
2013-02-28 12:11:00,54.0,51.0,30.32,SSW,210,4.0,8.0,89,0.01,,,0.12,,2013-02-28 20:11:00,
2013-02-28 12:21:00,54.0,51.0,30.32,SW,216,5.0,18.0,88,0.01,,,0.13,,2013-02-28 20:21:00,
2013-02-28 12:31:00,54.0,51.0,30.32,South,190,3.0,12.0,88,0.01,,,0.13,,2013-02-28 20:31:00,
2013-02-28 12:41:00,54.0,51.0,30.32,South,190,3.0,12.0,88,0.01,,,0.13,,2013-02-28 20:41:00,
2013-02-28 12:52:00,55.0,51.0,30.32,SW,215,8.0,17.0,87,0.01,,,0.13,,2013-02-28 20:52:00,
2013-02-28 13:01:00,55.0,52.0,30.32,South,191,4.0,8.0,88,0.02,,,0.14,,2013-02-28 21:01:00,
2013-02-28 13:11:00,55.0,52.0,30.32,South,191,4.0,8.0,88,0.02,,,0.14,,2013-02-28 21:11:00,
2013-02-28 13:22:00,54.0,51.0,30.32,SSW,202,4.0,8.0,89,0.01,,,0.14,,2013-02-28 21:22:00,
2013-02-28 13:31:00,55.0,51.0,30.32,SSW,205,7.0,14.0,87,0.01,,,0.14,,2013-02-28 21:31:00,
2013-02-28 13:41:00,55.0,51.0,30.32,SSW,205,7.0,14.0,87,0.01,,,0.14,,2013-02-28 21:41:00,
2013-02-28 13:52:00,55.0,51.0,30.32,SSW,196,9.0,14.0,86,0.01,,,0.14,,2013-02-28 21:52:00,
2013-02-28 14:01:00,56.0,52.0,30.32,SSW,196,8.0,23.0,86,0.00,,,0.14,,2013-02-28 22:01:00,
2013-02-28 14:11:00,56.0,52.0,30.32,SSW,196,8.0,23.0,86,0.00,,,0.14,,2013-02-28 22:11:00,
2013-02-28 14:21:00,56.0,52.0,30.32,SSW,199,8.0,19.0,86,0.00,,,0.14,,2013-02-28 22:21:00,
2013-02-28 14:31:00,56.0,52.0,30.33,SSW,195,6.0,17.0,86,0.00,,,0.14,,2013-02-28 22:31:00,
2013-02-28 14:41:00,56.0,52.0,30.33,SSW,195,6.0,17.0,86,0.00,,,0.14,,2013-02-28 22:41:00,
2013-02-28 14:52:00,55.0,51.0,30.33,WSW,253,8.0,16.0,87,0.00,,,0.14,,2013-02-28 22:52:00,
2013-02-28 15:01:00,55.0,51.0,30.33,SW,215,9.0,18.0,87,0.00,,,0.14,,2013-02-28 23:01:00,
2013-02-28 15:11:00,55.0,52.0,30.34,SW,224,5.0,18.0,88,0.00,,,0.14,,2013-02-28 23:11:00,
2013-02-28 15:21:00,55.0,52.0,30.34,SW,224,5.0,18.0,88,0.00,,,0.14,,2013-02-28 23:21:00,
2013-02-28 15:31:00,55.0,52.0,30.34,SW,214,7.0,14.0,89,0.00,,,0.14,,2013-02-28 23:31:00,
2013-02-28 15:41:00,55.0,52.0,30.34,SW,214,7.0,14.0,89,0.00,,,0.14,,2013-02-28 23:41:00,
2013-02-28 15:52:00,55.0,52.0,30.34,SW,222,4.0,15.0,89,0.00,,,0.14,,2013-02-28 23:52:00,
2013-02-28 16:01:00,55.0,52.0,30.34,SSW,211,7.0,19.0,89,0.00,,,0.14,,2013-03-01 00:01:00,
2013-02-28 16:11:00,55.0,52.0,30.34,SSW,211,7.0,19.0,89,0.00,,,0.14,,2013-03-01 00:11:00,
2013-02-28 16:22:00,56.0,52.0,30.35,SW,229,10.0,14.0,88,0.00,,,0.14,,2013-03-01 00:22:00,
2013-02-28 16:32:00,56.0,52.0,30.35,SSW,207,7.0,18.0,88,0.00,,,0.14,,2013-03-01 00:32:00,
2013-02-28 16:41:00,56.0,52.0,30.35,SSW,207,7.0,18.0,88,0.00,,,0.14,,2013-03-01 00:41:00,
2013-02-28 16:52:00,56.0,53.0,30.35,SSW,204,6.0,18.0,89,0.01,,,0.15,,2013-03-01 00:52:00,
2013-02-28 17:01:00,56.0,52.0,30.36,WSW,242,7.0,13.0,88,0.01,,,0.15,,2013-03-01 01:01:00,
2013-02-28 17:11:00,56.0,52.0,30.36,SSW,213,8.0,21.0,87,0.01,,,0.15,,2013-03-01 01:11:00,
2013-02-28 17:21:00,56.0,52.0,30.36,SSW,213,8.0,21.0,87,0.01,,,0.15,,2013-03-01 01:21:00,
2013-02-28 17:31:00,56.0,52.0,30.36,SW,215,7.0,17.0,87,0.01,,,0.15,,2013-03-01 01:31:00,
2013-02-28 17:41:00,56.0,52.0,30.36,SW,215,7.0,17.0,87,0.01,,,0.15,,2013-03-01 01:41:00,
2013-02-28 17:52:00,56.0,52.0,30.37,SW,224,7.0,15.0,88,0.00,,,0.15,,2013-03-01 01:52:00,
2013-02-28 18:01:00,56.0,52.0,30.37,SW,227,10.0,17.0,87,0.00,,,0.15,,2013-03-01 02:01:00,
2013-02-28 18:11:00,56.0,52.0,30.37,SSW,211,11.0,19.0,87,0.00,,,0.15,,2013-03-01 02:11:00,
2013-02-28 18:21:00,56.0,52.0,30.37,SSW,211,11.0,19.0,87,0.00,,,0.15,,2013-03-01 02:21:00,
2013-02-28 18:31:00,56.0,52.0,30.38,SW,229,8.0,21.0,88,0.00,,,0.15,,2013-03-01 02:31:00,
2013-02-28 18:41:00,56.0,52.0,30.38,SW,229,8.0,21.0,88,0.00,,,0.15,,2013-03-01 02:41:00,
2013-02-28 18:52:00,56.0,52.0,30.38,SSW,211,10.0,17.0,87,0.00,,,0.15,,2013-03-01 02:52:00,
2013-02-28 19:01:00,55.0,51.0,30.39,SW,232,7.0,16.0,87,0.00,,,0.15,,2013-03-01 03:01:00,
2013-02-28 19:11:00,55.0,52.0,30.39,SSW,207,7.0,14.0,88,0.00,,,0.15,,2013-03-01 03:11:00,
2013-02-28 19:21:00,55.0,52.0,30.39,SSW,207,7.0,14.0,88,0.00,,,0.15,,2013-03-01 03:21:00,
2013-02-28 19:31:00,55.0,52.0,30.40,SW,229,8.0,14.0,88,0.00,,,0.15,,2013-03-01 03:31:00,
2013-02-28 19:41:00,55.0,52.0,30.40,SW,229,8.0,14.0,88,0.00,,,0.15,,2013-03-01 03:41:00,
2013-02-28 19:52:00,55.0,52.0,30.40,SW,218,9.0,16.0,88,0.00,,,0.15,,2013-03-01 03:52:00,
2013-02-28 20:01:00,55.0,51.0,30.40,SW,227,4.0,13.0,87,0.00,,,0.15,,2013-03-01 04:01:00,
2013-02-28 20:11:00,55.0,51.0,30.40,SW,227,4.0,13.0,87,0.00,,,0.15,,2013-03-01 04:11:00,
2013-02-28 20:21:00,55.0,51.0,30.41,SSW,202,5.0,10.0,87,0.00,,,0.15,,2013-03-01 04:21:00,
2013-02-28 20:31:00,55.0,51.0,30.41,SW,218,5.0,11.0,86,0.00,,,0.15,,2013-03-01 04:31:00,
2013-02-28 20:41:00,55.0,51.0,30.41,SW,218,5.0,11.0,86,0.00,,,0.15,,2013-03-01 04:41:00,
2013-02-28 20:52:00,55.0,51.0,30.42,SW,227,9.0,14.0,86,0.00,,,0.15,,2013-03-01 04:52:00,
2013-02-28 21:01:00,55.0,51.0,30.41,SW,221,7.0,15.0,86,0.00,,,0.15,,2013-03-01 05:01:00,
2013-02-28 21:11:00,55.0,51.0,30.41,SW,221,7.0,15.0,86,0.00,,,0.15,,2013-03-01 05:11:00,
2013-02-28 21:22:00,55.0,51.0,30.42,SW,215,5.0,10.0,86,0.00,,,0.15,,2013-03-01 05:22:00,
2013-02-28 21:32:00,55.0,51.0,30.42,SW,216,4.0,13.0,86,0.00,,,0.15,,2013-03-01 05:32:00,
2013-02-28 21:41:00,55.0,51.0,30.42,SW,216,4.0,13.0,86,0.00,,,0.15,,2013-03-01 05:41:00,
2013-02-28 21:52:00,55.0,51.0,30.42,SSW,196,4.0,12.0,85,0.00,,,0.15,,2013-03-01 05:52:00,
2013-02-28 22:01:00,55.0,51.0,30.43,SW,223,4.0,9.0,86,0.00,,,0.15,,2013-03-01 06:01:00,
2013-02-28 22:11:00,55.0,51.0,30.43,SW,223,4.0,9.0,86,0.00,,,0.15,,2013-03-01 06:11:00,
2013-02-28 22:21:00,55.0,51.0,30.43,SSW,202,1.0,9.0,86,0.00,,,0.14,,2013-03-01 06:21:00,
2013-02-28 22:31:00,55.0,51.0,30.44,SSW,199,4.0,11.0,87,0.00,,,0.14,,2013-03-01 06:31:00,
2013-02-28 22:41:00,55.0,51.0,30.44,SSW,199,4.0,11.0,87,0.00,,,0.14,,2013-03-01 06:41:00,
2013-02-28 22:52:00,55.0,51.0,30.45,SSW,205,2.0,10.0,87,0.00,,,0.14,,2013-03-01 06:52:00,
2013-02-28 23:01:00,55.0,51.0,30.45,SW,221,4.0,13.0,87,0.00,,,0.14,,2013-03-01 07:01:00,
2013-02-28 23:11:00,55.0,51.0,30.45,SW,221,4.0,13.0,87,0.00,,,0.14,,2013-03-01 07:11:00,
2013-02-28 23:21:00,55.0,51.0,30.45,South,187,3.0,11.0,87,0.00,,,0.12,,2013-03-01 07:21:00,
2013-02-28 23:31:00,55.0,51.0,30.45,SSW,192,0.0,8.0,87,0.00,,,0.12,,2013-03-01 07:31:00,
2013-02-28 23:41:00,55.0,51.0,30.45,SSW,192,0.0,8.0,87,0.00,,,0.12,,2013-03-01 07:41:00,
2013-02-28 23:52:00,55.0,51.0,30.45,SSW,192,3.0,7.0,87,0.00,,,0.12,,2013-03-01 07:52:00,